Total_Precipitation_Accumulation
0.00 0.00 0.00 0.00 0.00 0.00 0.00 0.00 0.00 0.00 0.00 0.00 0.00 0.00 0.00 0.00 0.01 0.02 0.07 0.15 0.38 0.71 0.84 0.84 0.79 0.58 0.52 0.45 0.41 0.39 0.38 0.35 0.36 0.48 0.61 0.67 0.66 0.56 0.40 0.28 0.21 0.17 0.13 0.15
0.00 0.00 0.00 0.00 0.00 0.00 0.00 0.00 0.00 0.00 0.00 0.00 0.00 0.00 0.01 0.01 0.01 0.01 0.02 0.07 0.18 0.40 0.64 0.63 0.54 0.49 0.52 0.67 0.74 0.65 0.53 0.45 0.43 0.61 0.83 0.97 1.00 0.85 0.56 0.34 0.22 0.15 0.12 0.16
0.00 0.00 0.00 0.00 0.00 0.00 0.00 0.00 0.00 0.00 0.00 0.00 0.00 0.00 0.01 0.01 0.01 0.01 0.01 0.02 0.07 0.13 0.20 0.23 0.25 0.31 0.40 0.53 0.55 0.46 0.36 0.29 0.24 0.29 0.42 0.53 0.71 0.75 0.52 0.28 0.16 0.11 0.08 0.09
0.00 0.00 0.00 0.00 0.00 0.00 0.00 0.00 0.00 0.00 0.00 0.00 0.00 0.00 0.00 0.00 0.01 0.01 0.01 0.02 0.05 0.09 0.12 0.17 0.19 0.20 0.23 0.27 0.27 0.24 0.22 0.20 0.18 0.18 0.20 0.35 0.55 0.54 0.39 0.23 0.13 0.09 0.07 0.08
0.00 0.00 0.00 0.00 0.00 0.00 0.00 0.00 0.00 0.00 0.00 0.00 0.00 0.00 0.00 0.00 0.01 0.01 0.03 0.04 0.07 0.11 0.15 0.17 0.18 0.17 0.17 0.19 0.20 0.20 0.19 0.18 0.15 0.14 0.12 0.22 0.57 0.60 0.41 0.29 0.20 0.15 0.14 0.18
0.00 0.00 0.00 0.00 0.00 0.00 0.00 0.00 0.00 0.00 0.00 0.00 0.00 0.00 0.00 0.00 0.00 0.02 0.07 0.13 0.16 0.17 0.20 0.22 0.23 0.22 0.16 0.14 0.13 0.12 0.11 0.10 0.09 0.08 0.08 0.10 0.29 0.39 0.36 0.34 0.31 0.28 0.27 0.29
0.00 0.00 0.00 0.00 0.01 0.01 0.00 0.02 0.05 0.03 0.01 0.00 0.00 0.00 0.02 0.02 0.02 0.04 0.14 0.27 0.32 0.28 0.22 0.20 0.20 0.20 0.15 0.10 0.07 0.05 0.05 0.05 0.05 0.05 0.06 0.06 0.15 0.28 0.33 0.32 0.33 0.34 0.30 0.28
0.01 0.01 0.02 0.02 0.01 0.03 0.04 0.07 0.20 0.16 0.07 0.04 0.02 0.02 0.11 0.11 0.12 0.13 0.17 0.23 0.26 0.23 0.18 0.15 0.15 0.15 0.11 0.08 0.06 0.05 0.05 0.06 0.07 0.07 0.10 0.08 0.12 0.25 0.35 0.40 0.41 0.40 0.34 0.26
0.00 0.01 0.01 0.01 0.01 0.03 0.11 0.15 0.14 0.28 0.25 0.17 0.05 0.04 0.13 0.15 0.23 0.31 0.35 0.35 0.33 0.27 0.22 0.17 0.15 0.13 0.11 0.08 0.07 0.07 0.09 0.12 0.13 0.12 0.14 0.12 0.17 0.30 0.37 0.42 0.45 0.49 0.47 0.42
0.00 0.00 0.00 0.00 0.02 0.04 0.05 0.08 0.14 0.25 0.26 0.21 0.09 0.09 0.23 0.41 0.43 0.46 0.53 0.53 0.44 0.31 0.24 0.19 0.14 0.11 0.10 0.08 0.08 0.13 0.22 0.22 0.14 0.10 0.09 0.10 0.18 0.35 0.37 0.33 0.35 0.42 0.47 0.48
0.00 0.00 0.01 0.03 0.03 0.04 0.05 0.09 0.17 0.24 0.22 0.23 0.22 0.21 0.21 0.37 0.50 0.51 0.51 0.50 0.43 0.32 0.23 0.18 0.12 0.09 0.08 0.08 0.07 0.12 0.14 0.16 0.11 0.05 0.03 0.04 0.06 0.14 0.21 0.22 0.21 0.24 0.30 0.34
0.00 0.01 0.02 0.03 0.02 0.02 0.04 0.09 0.18 0.31 0.32 0.34 0.37 0.32 0.16 0.21 0.30 0.33 0.33 0.30 0.27 0.23 0.16 0.12 0.09 0.07 0.07 0.07 0.06 0.05 0.05 0.04 0.04 0.03 0.02 0.02 0.01 0.01 0.02 0.04 0.06 0.07 0.10 0.12
0.01 0.04 0.03 0.03 0.06 0.06 0.08 0.07 0.11 0.17 0.24 0.27 0.30 0.28 0.20 0.25 0.33 0.37 0.40 0.37 0.30 0.22 0.17 0.13 0.09 0.06 0.04 0.04 0.04 0.03 0.04 0.03 0.02 0.02 0.03 0.04 0.02 0.01 0.00 0.00 0.00 0.00 0.01 0.01
0.00 0.01 0.02 0.03 0.03 0.03 0.05 0.07 0.12 0.17 0.25 0.22 0.18 0.19 0.29 0.40 0.43 0.42 0.40 0.38 0.32 0.20 0.11 0.07 0.04 0.03 0.02 0.01 0.01 0.01 0.02 0.04 0.03 0.03 0.05 0.07 0.04 0.02 0.01 0.00 0.00 0.00 0.00 0.00
0.00 0.00 0.00 0.01 0.02 0.03 0.04 0.05 0.10 0.14 0.17 0.21 0.16 0.16 0.26 0.35 0.40 0.40 0.33 0.27 0.21 0.14 0.07 0.04 0.02 0.01 0.01 0.01 0.01 0.01 0.02 0.05 0.05 0.05 0.05 0.06 0.05 0.04 0.02 0.01 0.00 0.00 0.00 0.00
0.00 0.00 0.01 0.02 0.06 0.07 0.06 0.05 0.07 0.09 0.10 0.14 0.16 0.18 0.19 0.20 0.26 0.29 0.26 0.21 0.18 0.13 0.08 0.04 0.02 0.01 0.01 0.01 0.01 0.02 0.04 0.04 0.05 0.05 0.04 0.05 0.07 0.06 0.03 0.01 0.01 0.01 0.00 0.00
0.00 0.00 0.01 0.03 0.05 0.09 0.09 0.07 0.07 0.06 0.05 0.11 0.22 0.25 0.19 0.20 0.24 0.25 0.19 0.15 0.12 0.09 0.06 0.04 0.02 0.01 0.01 0.01 0.02 0.05 0.06 0.05 0.05 0.05 0.03 0.04 0.07 0.09 0.06 0.02 0.01 0.01 0.01 0.01
0.00 0.00 0.03 0.06 0.07 0.10 0.06 0.01 0.01 0.04 0.03 0.03 0.11 0.13 0.12 0.13 0.11 0.08 0.06 0.06 0.05 0.03 0.02 0.02 0.01 0.01 0.01 0.02 0.04 0.08 0.11 0.13 0.12 0.09 0.05 0.05 0.06 0.06 0.05 0.03 0.03 0.04 0.04 0.05
0.00 0.00 0.01 0.04 0.05 0.04 0.01 0.00 0.00 0.04 0.04 0.01 0.03 0.05 0.04 0.02 0.04 0.05 0.01 0.01 0.01 0.00 0.01 0.01 0.01 0.02 0.02 0.04 0.09 0.14 0.20 0.22 0.20 0.14 0.09 0.07 0.08 0.10 0.10 0.06 0.03 0.03 0.04 0.05
0.00 0.00 0.00 0.01 0.03 0.03 0.01 0.00 0.00 0.01 0.04 0.01 0.00 0.02 0.02 0.02 0.09 0.12 0.04 0.00 0.00 0.00 0.01 0.01 0.02 0.04 0.06 0.09 0.13 0.18 0.23 0.24 0.22 0.15 0.09 0.07 0.07 0.08 0.08 0.07 0.05 0.03 0.03 0.03
0.00 0.00 0.00 0.00 0.00 0.00 0.00 0.00 0.01 0.05 0.08 0.01 0.00 0.00 0.00 0.02 0.05 0.05 0.02 0.00 0.00 0.01 0.01 0.01 0.04 0.06 0.08 0.08 0.11 0.16 0.22 0.22 0.16 0.08 0.05 0.06 0.07 0.08 0.08 0.09 0.11 0.10 0.09 0.07
0.00 0.00 0.00 0.00 0.00 0.00 0.00 0.00 0.01 0.02 0.01 0.00 0.00 0.00 0.00 0.00 0.00 0.00 0.00 0.00 0.00 0.00 0.00 0.02 0.07 0.10 0.08 0.07 0.09 0.12 0.13 0.14 0.10 0.06 0.04 0.04 0.06 0.08 0.11 0.20 0.23 0.23 0.19 0.11
0.00 0.00 0.00 0.00 0.00 0.00 0.00 0.00 0.00 0.00 0.00 0.00 0.00 0.00 0.00 0.00 0.00 0.00 0.00 0.00 0.00 0.00 0.01 0.03 0.06 0.08 0.11 0.13 0.12 0.11 0.08 0.06 0.07 0.08 0.08 0.06 0.06 0.08 0.10 0.14 0.18 0.17 0.13 0.08
0.00 0.00 0.00 0.00 0.00 0.00 0.00 0.00 0.00 0.00 0.00 0.00 0.00 0.00 0.00 0.00 0.00 0.00 0.00 0.00 0.00 0.00 0.02 0.04 0.08 0.12 0.16 0.19 0.15 0.09 0.06 0.04 0.06 0.11 0.16 0.16 0.13 0.11 0.07 0.07 0.08 0.09 0.07 0.05
0.00 0.00 0.00 0.00 0.00 0.00 0.00 0.00 0.00 0.00 0.00 0.00 0.00 0.00 0.00 0.00 0.00 0.00 0.00 0.00 0.00 0.00 0.01 0.04 0.09 0.13 0.13 0.15 0.15 0.10 0.06 0.06 0.08 0.09 0.10 0.12 0.14 0.18 0.16 0.12 0.11 0.11 0.10 0.09
0.00 0.00 0.00 0.00 0.00 0.00 0.00 0.00 0.00 0.00 0.00 0.00 0.00 0.00 0.00 0.00 0.00 0.00 0.00 0.00 0.00 0.00 0.00 0.01 0.05 0.07 0.08 0.09 0.09 0.07 0.08 0.09 0.12 0.12 0.13 0.14 0.15 0.15 0.16 0.14 0.11 0.11 0.11 0.11